Regional Weather Roundup
Issued by NWS Northern Indiana

Home | Current Version | Previous Version | Graphics & Text | Print | Product List | Glossary On
Versions: 1 2 3 4 5 6 7 8 9 10 11 12 13 14 15 16 17 18 19 20 21 22 23 24 25 26 27 28 29 30 31 32 33 34 35 36 37 38 39 40 41 42 43 44 45 46 47 48 49 50
000
ASUS43 KIWX 220800
RWRIWX

KIWX WEATHER ROUNDUP
NATIONAL WEATHER SERVICE NORTHERN INDIANA
400 AM EDT MON MAY 22 2017

NOTE: "FAIR" INDICATES FEW OR NO CLOUDS BELOW 12,000 FEET WITH NO
SIGNIFICANT WEATHER AND/OR OBSTRUCTIONS TO VISIBILITY.

* THESE STATIONS ARE NOT UNDER NWS QUALITY CONTROL. THEY ALSO MAY NOT
  REPORT WEATHER SUCH AS PRECIPITATION OR FOG.

INZ001>027-220900-
NORTHERN INDIANA

CITY           SKY/WX    TMP DP  RH WIND       PRES   REMARKS
MICHIGAN CITY* CLOUDY    50  43  76 SW9       30.02S
SOUTH BEND     CLOUDY    50  43  77 SW12      30.01F
GOSHEN         CLOUDY    51  40  65 SW13      30.02S
MONTICELLO*    PTCLDY    48  44  84 SW7       30.06S
ANGOLA*        CLOUDY    50  41  71 W10       30.01S
FORT WAYNE     MOCLDY    50  42  74 SW12      30.05R
PERU/GRISSOM   CLEAR     47  45  92 SW10      30.06S

$$
INZ028>050-220900-
CENTRAL INDIANA

CITY           SKY/WX    TMP DP  RH WIND       PRES   REMARKS
LAFAYETTE      CLEAR     47  44  90 W5        30.08S
KOKOMO*        CLEAR     48  43  82 SW9       30.08S
MUNCIE*        CLEAR     50  41  71 SW6       30.08R
INDIANAPOLIS   CLOUDY    48  42  80 SW6       30.10S

$$
MIZ043>046-050>051-056>058-064>065-071>073-077>080-220900-
SOUTHWEST LOWER MICHIGAN

CITY           SKY/WX    TMP DP  RH WIND       PRES   REMARKS
BATTLE CREEK   CLOUDY    50  40  68 SW13      29.98S
BENTON HARBOR  CLOUDY    52  42  69 W17G24    29.99S
COLDWATER*     CLOUDY    50  39  66 SW9       29.99F
HILLSDALE*     CLOUDY    50  37  62 SW10      29.99S
HOLLAND        CLOUDY    50  42  74 W16G25    29.96S
GRAND RAPIDS   CLOUDY    50  43  77 SW16G25   29.94F
KALAMAZOO      CLOUDY    51  39  63 SW10      29.98S
STURGIS*       CLOUDY    49  41  72 SW9       29.99S
THREE RIVERS*  CLOUDY    50  39  66 SW7       30.00S

$$
OHZ001>008-015>018-024>025-220900-
NORTHWEST OHIO

CITY           SKY/WX    TMP DP  RH WIND       PRES   REMARKS
DEFIANCE       CLOUDY    50  37  61 W9G18     30.03R
FINDLAY        PTCLDY    52  42  69 W18       30.02R
TOLEDO EXPRESS PTCLDY    52  42  69 W18       30.00R
TOLEDO METCALF CLOUDY    56  46  69 W20G26    30.00R
LIMA           PTCLDY    51  44  77 W15       30.05R

$$
AND FOR LAKE MICHIGAN COASTAL AND OPEN LAKE BUOY OBSERVATIONS

STATION/POSITION TEMP    WIND        PRES    VSBY  WAVE
                 AIR SEA DIR/SP/G                  HT/PER
                 (F)     (DEG/KT/KT) (MB)    (MI)  (FT/S)
CALUMET HARBOR    53     240/  6/ 14 1015.8S
MICHIGAN CITY     52     220/ 19/ 22   N/A
BURNS HARBOR      53     230/ 10/ 16 1016.9S
SOUTH LAKE BUOY   47 44  250/ 14/ 14 1014.7          2/ 4
4 MI NW BRIDGMAN  52 54  250/ 17/ 21 1016.4F         4/ 4
MICHIGAN CITY     52 53  250/ 14/ 17   N/A           3/ 4

$$
&&




USA.gov is the U.S. government's official web portal to all federal, state and local government web resources and services.